Mount Shasta, CA

8:25 AM PDT on October 17, 2017 (GMT -0700)
Mount Shasta

Weather History for KMHS - August, 2012

Change the Weather History Date:

Sunday, August 12, 2012

  Actual Average Record
Temperature  
Mean Temperature 75 °F 67 °F  
Max Temperature 99 °F 86 °F 99 °F (2012)
Min Temperature 50 °F 49 °F 39 °F (1924)
Degree Days  
Heating Degree Days 0 1  
Month to date heating degree days 0 12  
Since 1 June heating degree days 199 187  
Since 1 July heating degree days 20 45  
Cooling Degree Days 10 3  
Month to date cooling degree days 92 46  
Year to date cooling degree days 265 214  
Since 1 June cooling degree days 256 206  
Growing Degree Days 25 (Base 50)    
Moisture  
Dew Point 38 °F    
Average Humidity 33    
Maximum Humidity 63    
Minimum Humidity 9    
Precipitation  
Precipitation 0.00 in 0.01 in 0.05 in (1965)
Month to date precipitation 0.00 0.12  
Year to date precipitation 24.55 27.11  
Sea Level Pressure  
Sea Level Pressure 29.94 in    
Wind  
Wind Speed 1 mph (NNE)    
Max Wind Speed 6 mph    
Max Gust Speed 16 mph    
Visibility 10 miles    
Events      
T = Trace of Precipitation, MM = Missing Value Source: NWS Daily Summary

Daily Weather History Graph

Daily Weather History Graph

Search for Another Location

Airport or City:

Trip Planner

Search our weather history database for the weather conditions in past years. The results will help you decide how hot, cold, wet, or windy it might be!

Date:

Astronomy

Aug. 12, 2012 Rise Set
Actual Time 6:16 AM PDT 8:11 PM PDT
Civil Twilight 5:46 AM PDT 8:41 PM PDT
Nautical Twilight 5:09 AM PDT 9:17 PM PDT
Astronomical Twilight 4:29 AM PDT 9:57 PM PDT
Moon 1:32 AM PDT (8/12) 4:42 PM PDT (8/12)
Length of Visible Light 14h 55m
Length of Day
13h 55m
Waning Crescent, 23% of the Moon is Illuminated
Aug 12
Waning Crescent
Aug 17
New
Aug 24
First Quarter
Aug 31
Full
Sep 8
Last Quarter

Hourly Weather History & Observations

Time (PDT) Temp. Dew Point Humidity Pressure Visibility Wind Dir Wind Speed Gust Speed Precip Events Conditions
12:56 AM 55.0 °F 34.0 °F 45% 29.95 in 10.0 mi Calm Calm - N/A   Clear
1:56 AM 54.0 °F 35.1 °F 49% 29.95 in 10.0 mi Calm Calm - N/A   Clear
2:56 AM 53.1 °F 36.0 °F 52% 29.95 in 10.0 mi Calm Calm - N/A   Clear
3:56 AM 52.0 °F 37.0 °F 57% 29.95 in 10.0 mi Calm Calm - N/A   Clear
4:56 AM 54.0 °F 37.9 °F 55% 29.95 in 10.0 mi Calm Calm - N/A   Clear
5:56 AM 52.0 °F 39.0 °F 61% 29.96 in 10.0 mi Calm Calm - N/A   Clear
6:56 AM 52.0 °F 39.0 °F 61% 29.98 in 10.0 mi Calm Calm - N/A   Clear
7:56 AM 63.0 °F 46.9 °F 56% 29.98 in 10.0 mi Calm Calm - N/A   Clear
8:56 AM 73.0 °F 52.0 °F 48% 29.97 in 10.0 mi Calm Calm - N/A   Clear
9:56 AM 82.0 °F 46.9 °F 29% 29.96 in 10.0 mi Calm Calm - N/A   Clear
10:56 AM 90.0 °F 43.0 °F 19% 29.95 in 10.0 mi Calm Calm - N/A   Clear
11:56 AM 93.9 °F 37.9 °F 14% 29.95 in 10.0 mi Calm Calm - N/A   Clear
12:56 PM 96.1 °F 33.1 °F 11% 29.94 in 10.0 mi Calm Calm - N/A   Clear
1:56 PM 97.0 °F 30.9 °F 10% 29.94 in 10.0 mi Variable 3.5 mph - N/A   Clear
2:56 PM 98.1 °F 30.0 °F 9% 29.92 in 10.0 mi Calm Calm - N/A   Clear
3:56 PM 97.0 °F 30.9 °F 10% 29.91 in 10.0 mi Calm Calm - N/A   Clear
4:56 PM 95.0 °F 35.1 °F 12% 29.90 in 10.0 mi Calm Calm - N/A   Clear
5:56 PM 91.9 °F 33.1 °F 12% 29.90 in 10.0 mi Variable 3.5 mph - N/A   Clear
6:56 PM 89.1 °F 32.0 °F 13% 29.91 in 10.0 mi Calm Calm - N/A   Clear
7:56 PM 79.0 °F 37.0 °F 22% 29.92 in 10.0 mi Calm Calm - N/A   Clear
8:56 PM 71.1 °F 42.1 °F 35% 29.94 in 10.0 mi Calm Calm - N/A   Clear
9:56 PM 66.9 °F 39.0 °F 36% 29.96 in 10.0 mi North 3.5 mph - N/A   Clear
10:56 PM 64.9 °F 37.0 °F 36% 29.96 in 10.0 mi ENE 4.6 mph - N/A   Clear
11:56 PM 61.0 °F 37.9 °F 42% 29.97 in 10.0 mi Calm Calm - N/A   Clear